Weather History for KCNM - February, 2013

Change the Weather History Date:

Wednesday, February 27, 2013

  Actual Average Record
Temperature  
Mean Temperature 42 °F -  
Max Temperature 54 °F 65 °F 82 °F (1976)
Min Temperature 28 °F 36 °F 19 °F (2002)
Degree Days  
Heating Degree Days 23    
Moisture  
Dew Point 11 °F    
Average Humidity 30    
Maximum Humidity 59    
Minimum Humidity 18    
Precipitation  
Precipitation 0.00 in - - ()
Sea Level Pressure  
Sea Level Pressure 30.18 in    
Wind  
Wind Speed 10 mph (North)    
Max Wind Speed 17 mph    
Max Gust Speed 24 mph    
Visibility 10 miles    
Events      
Averages and records for this station are not official NWS values.
T = Trace of Precipitation, MM = Missing Value Source: NWS Daily Summary

Daily Weather History Graph

Daily Weather History Graph

Search for Another Location

Airport or City:

Trip Planner

Search our weather history database for the weather conditions in past years. The results will help you decide how hot, cold, wet, or windy it might be!

Date:

Astronomy

Feb. 27, 2013 Rise Set
Actual Time 6:26 AM MST 5:53 PM MST
Civil Twilight 6:01 AM MST 6:17 PM MST
Nautical Twilight 5:33 AM MST 6:46 PM MST
Astronomical Twilight 5:05 AM MST 7:14 PM MST
Moon 8:05 PM MST (2/27) 7:12 AM MST (2/27)
Length of Visible Light 12h 16m
Length of Day
11h 26m
Waning Gibbous, 96% of the Moon is Illuminated
Feb 27
Waning Gibbous
Mar 4
Last Quarter
Mar 11
New
Mar 19
First Quarter
Mar 27
Full

Hourly Weather History & Observations

Time (MST) Temp. Windchill Dew Point Humidity Pressure Visibility Wind Dir Wind Speed Gust Speed Precip Events Conditions
12:53 AM 41.0 °F 33.1 °F -0.0 °F 18% 29.97 in 10.0 mi North 15.0 mph - N/A   Clear
1:53 AM 39.9 °F 32.1 °F -0.9 °F 18% 30.02 in 10.0 mi North 13.8 mph 24.2 mph N/A   Clear
2:53 AM 37.0 °F 28.9 °F 6.1 °F 28% 30.04 in 10.0 mi NNW 12.7 mph - N/A   Clear
3:53 AM 34.0 °F 27.2 °F 8.1 °F 34% 30.07 in 10.0 mi North 8.1 mph - N/A   Clear
4:53 AM 32.0 °F 28.7 °F 7.0 °F 35% 30.11 in 10.0 mi West 3.5 mph - N/A   Clear
5:53 AM 30.9 °F 25.2 °F 7.0 °F 37% 30.15 in 10.0 mi WSW 5.8 mph - N/A   Clear
6:53 AM 32.0 °F 28.7 °F 7.0 °F 35% 30.20 in 10.0 mi WNW 3.5 mph - N/A   Clear
7:53 AM 39.2 °F 32.5 °F 12.2 °F 33% 30.27 in 10.0 mi NNW 10.4 mph 19.6 mph N/A   Clear
8:53 AM 43.0 °F 35.7 °F 16.0 °F 34% 30.25 in 10.0 mi North 15.0 mph - N/A   Clear
9:53 AM 46.0 °F 39.0 °F 16.0 °F 30% 30.26 in 10.0 mi NNW 17.3 mph 24.2 mph N/A   Clear
10:53 AM 48.0 °F - 15.1 °F 27% 30.25 in 10.0 mi NNE 13.8 mph - N/A   Clear
11:53 AM 48.9 °F - 15.1 °F 26% 30.23 in 10.0 mi North 11.5 mph 19.6 mph N/A   Clear
12:53 PM 51.1 °F - 14.0 °F 23% 30.20 in 10.0 mi NNW 13.8 mph - N/A   Clear
1:53 PM 53.1 °F - 12.0 °F 20% 30.17 in 10.0 mi North 10.4 mph - N/A   Clear
2:53 PM 53.1 °F - 10.9 °F 19% 30.16 in 10.0 mi North 9.2 mph - N/A   Clear
3:53 PM 54.0 °F - 10.9 °F 18% 30.17 in 10.0 mi NNE 8.1 mph - N/A   Clear
4:53 PM 52.0 °F - 10.0 °F 19% 30.17 in 10.0 mi East 3.5 mph - N/A   Clear
5:53 PM 48.9 °F - 9.0 °F 20% 30.19 in 10.0 mi NE 4.6 mph - N/A   Clear
6:53 PM 44.1 °F 40.8 °F 10.0 °F 25% 30.22 in 10.0 mi ENE 5.8 mph - N/A   Clear
7:53 PM 41.0 °F 37.1 °F 10.9 °F 29% 30.22 in 10.0 mi East 5.8 mph - N/A   Clear
8:53 PM 39.9 °F 37.8 °F 12.9 °F 33% 30.23 in 10.0 mi ENE 3.5 mph - N/A   Clear
9:53 PM 34.0 °F - 12.9 °F 42% 30.26 in 10.0 mi Calm Calm - N/A   Clear
10:53 PM 33.8 °F - 15.8 °F 48% 30.28 in 10.0 mi Calm Calm - N/A   Clear
11:53 PM 28.4 °F 21.2 °F 15.8 °F 59% 30.28 in 10.0 mi SW 6.9 mph - N/A   Clear